Location: İstanbul
(41.0082°N, 28.9784°E)
Time: 20:23:20
(UTC+03:00)

ITUPSAT 1 - Pass Details

Date: 26 April 2024
Orbit: 694 x 707 km, 98.5° (Epoch: 29 May)

Event Time Altitude Azimuth Distance (km) Brightness Sun altitude
Rises 00:36:01 0° 353° (N) 3,084 ? -35.1°
Reaches altitude 10° 00:39:22 10° 328° (NNW) 2,159 ? -35.2°
Enters shadow 00:41:32 14° 300° (WNW) 1,925 ? -35.2°
